Simultaneous Nadir Overpasses (SNOs) Predictions

Prediction of SNOs between GOES-16 and NOAA-20 Satellite Orbit:

Table of predicted SNOs for the next 14.0 days since TLE Epoch: 6/15/2022
Index Date Time (GOES-16) GOES-16 Lat,Lon NOAA-20 Lat,Lon Distance(km) Time Diff (sec)
1 06/16/2022 06:32:49 0.01, -75.20 0.28, -76.50 148.00 80
2 06/17/2022 06:11:23 0.00, -75.20 -0.71, -71.96 368.47 80
3 06/18/2022 18:33:19 -0.01, -75.21 -0.45, -77.27 234.84 80
4 06/19/2022 18:17:14 -0.01, -75.22 0.55, -72.74 282.52 80
5 06/21/2022 06:39:00 0.01, -75.23 0.66, -78.00 316.24 80
6 06/22/2022 06:17:36 0.01, -75.24 -0.40, -73.47 201.46 80
7 06/23/2022 18:39:31 -0.01, -75.26 -0.81, -78.77 400.53 80
8 06/24/2022 18:23:27 -0.00, -75.28 0.25, -74.25 117.62 80
9 06/26/2022 06:45:13 -0.00, -75.30 0.96, -79.51 480.06 80
10 06/27/2022 06:23:48 -0.01, -75.32 -0.10, -74.99 38.14 80
11 06/29/2022 18:26:58 0.01, -75.37 -0.09, -75.76 44.78 80
